GW3114 Weather Reports


time (UTC)temp
F
wind
direction
speed
knots
gust
knots
rain 1hr
in
rain 24hr
in
rain mn
in
humidity
%
barometer
mb
20260507180847 66 117 1.7 2.6 0.00 0.07 0.07 49 1009.9
20260507175845 65 111 1.7 2.6 0.00 0.07 0.07 56 1010.0
20260507174840 63 206 0.0 0.9 0.00 0.07 0.07 63 1010.0
20260507173840 64 66 0.9 1.7 0.00 0.07 0.07 59 1010.3
20260507172839 62 228 0.0 0.0 0.00 0.07 0.07 55 1010.4
20260507171838 62 104 1.7 2.6 0.00 0.07 0.07 57 1010.6
20260507170838 62 142 0.9 2.6 0.00 0.07 0.07 65 1010.9
20260507165835 61 160 1.7 1.7 0.00 0.07 0.07 60 1011.3
20260507164833 62 208 0.9 0.9 0.00 0.07 0.07 56 1011.3
20260507163833 61 218 0.9 1.7 0.00 0.07 0.07 58 1011.5
20260507162833 60 199 0.9 1.7 0.00 0.07 0.07 57 1011.3
20260507161831 60 16 1.7 2.6 0.00 0.07 0.07 54 1011.6
20260507160830 58 203 0.9 0.9 0.00 0.07 0.07 60 1012.0
20260507155828 57 252 0.0 0.0 0.00 0.07 0.07 57 1011.9
20260507154827 57 228 0.0 0.9 0.00 0.07 0.07 62 1011.9
20260507153827 57 243 0.9 0.9 0.00 0.07 0.07 60 1012.0
20260507152826 57 350 2.6 2.6 0.00 0.07 0.07 59 1012.3
20260507151824 58 67 0.9 1.7 0.00 0.07 0.07 58 1012.5
20260507150824 57 234 0.0 0.0 0.00 0.07 0.07 62 1012.2
20260507145822 57 194 0.9 1.7 0.00 0.07 0.07 60 1012.7
20260507144822 56 232 0.0 0.9 0.00 0.07 0.07 59 1012.7
20260507143821 55 219 0.0 0.0 0.00 0.07 0.07 60 1012.7
20260507142820 55 269 0.9 0.9 0.00 0.07 0.07 62 1012.8
20260507141820 54 17 0.0 0.9 0.00 0.07 0.07 68 1012.9
20260507140819 54 216 0.0 0.0 0.00 0.07 0.07 65 1013.2
20260507135814 54 1 1.7 2.6 0.00 0.07 0.07 67 1012.9
20260507134813 54 25 1.7 1.7 0.00 0.07 0.07 65 1013.3
20260507133811 54 289 0.9 0.9 0.00 0.07 0.07 68 1013.4
20260507132811 54 235 0.9 0.9 0.00 0.07 0.07 67 1013.4
20260507131811 54 230 0.0 0.9 0.00 0.07 0.07 70 1013.3
20260507130810 53 225 0.9 1.7 0.00 0.07 0.07 66 1013.1
20260507125806 53 235 0.9 0.9 0.00 0.07 0.07 71 1013.1
20260507124806 53 227 0.0 0.9 0.00 0.07 0.07 71 1013.3
20260507123801 53 229 0.0 0.0 0.00 0.07 0.07 71 1013.4
20260507122800 53 231 0.0 0.0 0.00 0.07 0.07 70 1013.5
20260507121757 53 167 0.0 0.9 0.00 0.07 0.07 68 1013.0
20260507120756 53 222 0.0 0.9 0.00 0.07 0.07 71 1013.1
20260507115755 53 254 0.9 0.9 0.00 0.07 0.07 70 1013.0
20260507114752 53 270 0.9 1.7 0.00 0.07 0.07 70 1013.1
20260507113747 53 216 0.9 1.7 0.00 0.07 0.07 70 1012.8
20260507112747 53 300 2.6 2.6 0.00 0.07 0.07 73 1012.8
20260507111742 53 262 1.7 2.6 0.00 0.07 0.07 76 1012.4
20260507110740 53 314 0.9 1.7 0.00 0.07 0.07 82 1012.6
20260507105740 53 308 1.7 1.7 0.00 0.07 0.07 80 1012.6
20260507104739 53 259 0.9 0.9 0.00 0.07 0.07 85 1012.5
20260507103737 53 264 0.0 0.9 0.00 0.07 0.07 88 1012.4
20260507102736 53 226 0.0 0.9 0.00 0.07 0.07 89 1012.2
20260507101735 53 234 0.0 0.9 0.00 0.07 0.07 90 1012.0
20260507100734 53 233 0.0 0.0 0.00 0.07 0.07 89 1012.2
20260507095729 53 240 0.9 0.9 0.00 0.07 0.07 89 1012.1
20260507094729 53 227 0.0 0.0 0.00 0.07 0.07 89 1011.9
20260507093728 53 226 0.0 0.0 0.00 0.07 0.07 89 1012.0
20260507092724 53 190 0.0 0.0 0.00 0.07 0.07 89 1011.9
20260507091722 53 243 0.0 0.0 0.00 0.07 0.07 90 1011.6
20260507090719 53 237 0.0 0.9 0.00 0.07 0.07 91 1011.6
20260507085719 54 223 0.0 0.0 0.00 0.07 0.07 90 1011.5
20260507084719 54 8 0.0 0.9 0.00 0.07 0.07 90 1011.6
20260507083718 54 246 0.9 0.9 0.00 0.07 0.07 91 1011.7
20260507082716 54 234 0.0 0.0 0.00 0.07 0.07 91 1011.5
20260507081714 54 233 0.0 0.0 0.00 0.07 0.07 91 1011.7
20260507080713 54 240 0.0 0.9 0.00 0.07 0.07 91 1011.7
20260507075711 54 234 0.9 1.7 0.00 0.07 0.07 92 1011.5
20260507074709 54 233 0.0 0.9 0.00 0.07 0.07 93 1011.0
20260507073704 54 231 0.0 0.0 0.00 0.07 0.07 93 1010.9
20260507072704 54 232 0.0 0.0 0.00 0.07 0.07 93 1011.1
20260507071659 53 228 0.0 0.0 0.00 0.07 0.07 92 1010.9
20260507070659 54 277 1.7 2.6 0.00 0.07 0.07 93 1011.0
20260507065657 54 191 0.0 0.9 0.00 0.07 0.07 93 1011.1
20260507064657 54 218 0.9 0.9 0.00 0.07 0.07 93 1010.8
20260507063653 54 213 0.9 0.9 0.00 0.07 0.07 94 1011.1
20260507062652 54 227 0.0 0.0 0.00 0.07 0.07 96 1011.3
20260507061648 54 221 0.0 0.0 0.00 0.07 0.07 96 1011.5
20260507060643 54 238 0.0 0.0 0.00 0.07 0.07 97 1011.1
20260507055641 55 226 0.0 0.0 0.00 0.07 0.07 96 1011.0
20260507054639 55 250 0.0 0.0 0.00 0.07 0.07 96 1011.3
20260507053634 55 222 0.9 0.9 0.05 0.07 0.07 96 1011.3
20260507052630 55 29 0.0 0.9 0.00 0.06 0.06 95 1011.2
20260507051630 55 226 0.9 0.9 0.07 0.06 0.06 94 1011.2
20260507050629 55 266 1.7 2.6 0.00 0.05 0.05 95 1011.4
20260507045629 55 214 0.9 0.9 0.00 0.05 0.05 95 1010.9
20260507044628 55 154 0.9 0.9 0.00 0.05 0.05 95 1010.8
20260507043627 56 293 0.9 0.9 0.00 0.05 0.05 96 1011.4
20260507042626 56 294 0.9 1.7 0.00 0.05 0.05 95 1010.9
20260507041624 57 209 0.0 0.0 0.00 0.05 0.05 94 1011.5
20260507040624 58 121 0.0 0.0 0.83 0.05 0.05 92 1011.2
20260507035622 59 298 2.6 3.5 0.00 0.25 0.25 86 1011.0
20260507034621 59 226 1.7 1.7 0.00 0.25 0.25 88 1011.0
20260507033617 59 240 0.9 0.9 0.00 0.25 0.25 89 1010.6
20260507032617 60 4 0.9 1.7 0.00 0.25 0.25 91 1010.4
20260507031615 60 235 0.9 0.9 0.00 0.25 0.25 91 1010.4
20260507030615 61 179 0.9 1.7 0.00 0.25 0.25 89 1010.8
20260507025609 62 270 2.6 5.2 0.00 0.25 0.25 87 1010.4
20260507024604 62 281 1.7 1.7 0.00 0.25 0.25 87 1009.9
20260507023602 62 35 1.7 2.6 0.00 0.25 0.25 87 1009.7
20260507022557 62 228 0.0 0.0 0.00 0.25 0.25 88 1010.3
20260507021555 63 218 0.0 0.0 0.00 0.25 0.25 88 1009.8
20260507020549 63 209 1.7 1.7 0.00 0.25 0.25 88 1009.8
20260507015549 63 285 2.6 5.2 0.00 0.25 0.25 89 1009.7
20260507014549 63 222 0.0 0.9 0.00 0.25 0.25 93 1009.8
20260507013547 63 227 0.0 0.0 0.00 0.25 0.25 92 1009.7
20260507012542 64 230 0.0 0.0 0.00 0.25 0.25 91 1009.6
20260507011541 64 239 0.9 1.7 0.00 0.25 0.25 91 1010.0
20260507010537 64 276 0.9 1.7 0.00 0.25 0.25 92 1010.0
20260507005532 64 246 1.7 1.7 0.00 0.25 0.25 95 1009.8
20260507004531 65 258 0.0 0.0 0.00 0.25 0.25 96 1009.7
20260507003530 65 234 0.0 0.0 0.00 0.25 0.25 97 1009.4
20260507002528 65 223 0.0 0.9 0.00 0.25 0.25 98 1009.7
20260507001526 65 227 0.9 0.9 0.07 0.25 0.25 98 1009.4
20260507000526 65 229 0.0 0.0 0.07 0.25 0.25 98 1009.2
20260506235525 65 218 0.0 0.0 0.00 0.24 0.24 98 1009.0
20260506234524 65 234 0.0 0.0 0.00 0.24 0.24 97 1009.0
20260506233524 66 218 0.0 0.0 0.07 0.24 0.24 94 1009.0
20260506232523 67 224 0.9 0.9 0.12 0.23 0.23 91 1008.9
20260506231522 69 227 1.7 2.6 0.00 0.21 0.21 86 1008.5
20260506230521 69 219 0.9 0.9 0.00 0.21 0.21 83 1008.2
20260506225516 69 221 0.0 0.0 0.00 0.21 0.21 84 1008.3
20260506224515 69 199 0.9 0.9 0.00 0.21 0.21 83 1008.4
20260506223512 69 198 0.9 1.7 0.00 0.21 0.21 82 1008.3
20260506222511 69 193 0.9 1.7 0.00 0.21 0.21 83 1007.9
20260506221510 69 205 1.7 1.7 0.00 0.21 0.21 82 1008.2
20260506220508 70 195 1.7 5.2 0.00 0.21 0.21 80 1008.1
20260506215507 70 179 3.5 3.5 0.00 0.21 0.21 81 1008.0
20260506214506 70 203 3.5 6.1 0.00 0.21 0.21 80 1007.8
20260506213501 71 201 0.9 0.9 0.00 0.21 0.21 83 1008.0
20260506212459 70 190 2.6 3.5 0.00 0.21 0.21 81 1008.0
20260506211456 71 215 0.0 0.9 0.00 0.21 0.21 81 1008.0
20260506210456 70 105 2.6 5.2 0.00 0.21 0.21 82 1007.8
20260506205455 70 168 5.2 6.1 0.00 0.21 0.21 81 1007.7
20260506204455 71 224 0.9 1.7 0.00 0.21 0.21 82 1007.5
20260506203455 71 237 1.7 2.6 0.00 0.21 0.21 81 1007.5
20260506202450 69 152 3.5 3.5 0.00 0.21 0.21 81 1007.4
20260506201449 70 146 3.5 7.0 0.00 0.21 0.21 82 1007.9
20260506200448 70 131 0.9 1.7 0.00 0.21 0.21 83 1007.6
20260506195448 69 294 2.6 2.6 0.00 0.21 0.21 84 1007.8
20260506194448 69 168 2.6 2.6 0.00 0.21 0.21 84 1008.0
20260506193448 68 176 1.7 2.6 0.00 0.21 0.21 85 1007.7
20260506192447 69 226 0.9 0.9 0.00 0.21 0.21 83 1007.9
20260506191446 69 85 3.5 5.2 0.00 0.21 0.21 84 1007.9
20260506190445 69 144 5.2 7.8 0.00 0.21 0.21 83 1008.1
20260506185445 68 79 2.6 3.5 0.00 0.21 0.21 85 1008.3
20260506184445 68 220 1.7 1.7 0.00 0.21 0.21 86 1008.1
20260506183443 67 96 2.6 3.5 0.00 0.21 0.21 86 1008.3
20260506182444 67 163 3.5 5.2 0.00 0.21 0.21 86 1008.4
20260506181439 67 150 3.5 6.1 0.00 0.21 0.21 85 1008.5